TimeCDT,TemperatureF,Dew PointF,Humidity,Sea Level PressureIn,VisibilityMPH,Wind Direction,Wind SpeedMPH,Gust SpeedMPH,PrecipitationIn,Events,Conditions,WindDirDegrees,DateUTC
12:52 AM,18.0,1.0,48,30.27,10.0,WNW,4.6,-,N/A,,Clear,300,2014-03-26 05:52:00
1:52 AM,17.1,1.9,52,30.28,10.0,West,3.5,-,N/A,,Clear,270,2014-03-26 06:52:00
2:52 AM,16.0,3.0,57,30.28,10.0,West,3.5,-,N/A,,Clear,280,2014-03-26 07:52:00
3:52 AM,16.0,3.0,57,30.28,10.0,West,3.5,-,N/A,,Clear,260,2014-03-26 08:52:00
4:52 AM,15.1,3.9,61,30.28,10.0,WSW,3.5,-,N/A,,Clear,250,2014-03-26 09:52:00
5:52 AM,15.1,3.9,61,30.30,10.0,SW,3.5,-,N/A,,Clear,220,2014-03-26 10:52:00
6:52 AM,15.1,3.9,61,30.32,10.0,WSW,4.6,-,N/A,,Clear,240,2014-03-26 11:52:00
7:52 AM,18.0,6.1,60,30.32,10.0,SW,4.6,-,N/A,,Partly Cloudy,220,2014-03-26 12:52:00
8:52 AM,21.0,3.9,48,30.34,10.0,SSW,10.4,-,N/A,,Partly Cloudy,210,2014-03-26 13:52:00
9:52 AM,24.1,3.9,42,30.33,10.0,WSW,9.2,-,N/A,,Partly Cloudy,240,2014-03-26 14:52:00
10:52 AM,25.0,3.9,41,30.32,10.0,South,11.5,-,N/A,,Partly Cloudy,190,2014-03-26 15:52:00
11:52 AM,28.0,6.1,39,30.30,10.0,South,13.8,19.6,N/A,,Scattered Clouds,180,2014-03-26 16:52:00
12:52 PM,30.0,6.1,36,30.27,10.0,SW,15.0,21.9,N/A,,Partly Cloudy,220,2014-03-26 17:52:00
1:52 PM,32.0,8.1,37,30.23,10.0,South,11.5,18.4,N/A,,Mostly Cloudy,180,2014-03-26 18:52:00
2:52 PM,35.1,10.9,37,30.19,10.0,SSW,8.1,23.0,N/A,,Mostly Cloudy,210,2014-03-26 19:52:00
3:52 PM,34.0,12.9,42,30.17,10.0,South,15.0,-,N/A,,Scattered Clouds,170,2014-03-26 20:52:00
4:52 PM,35.1,15.1,44,30.14,10.0,SSE,15.0,21.9,N/A,,Mostly Cloudy,150,2014-03-26 21:52:00
5:52 PM,33.1,16.0,50,30.10,10.0,SSE,12.7,-,N/A,,Mostly Cloudy,150,2014-03-26 22:52:00
6:52 PM,33.1,18.0,54,30.09,10.0,SSE,15.0,-,N/A,,Mostly Cloudy,160,2014-03-26 23:52:00
7:52 PM,33.1,19.9,59,30.06,10.0,SSE,13.8,-,N/A,,Mostly Cloudy,160,2014-03-27 00:52:00
8:52 PM,33.1,23.0,66,30.04,10.0,SSE,9.2,-,N/A,,Mostly Cloudy,160,2014-03-27 01:52:00
9:52 PM,34.0,23.0,64,30.01,10.0,South,9.2,-,N/A,,Mostly Cloudy,170,2014-03-27 02:52:00
10:52 PM,37.0,18.0,46,29.99,10.0,South,13.8,-,N/A,,Overcast,180,2014-03-27 03:52:00
11:52 PM,37.0,18.0,46,29.97,10.0,South,10.4,-,N/A,,Overcast,180,2014-03-27 04:52:00